| time (UTC) | temp F | wind direction | speed knots | gust knots | rain 1hr in | rain 24hr in | rain mn in | humidity % | barometer mb |
| 20260506043054 | 48 | 302 | 0.9 | 2.6 | 0.08 | 1.30 | 0.03 | 99 | 1019.1 |
| 20260506040354 | 49 | 313 | 0.9 | 3.5 | 0.14 | 1.28 | 0.01 | 99 | 1019.3 |
| 20260506040121 | 49 | 313 | 1.7 | 3.5 | 0.13 | 1.27 | 0.00 | 99 | 1019.3 |
| 20260506033016 | 49 | 104 | 0.9 | 1.7 | 0.13 | 1.21 | 1.21 | 99 | 1019.0 |
| 20260506030332 | 49 | 137 | 0.0 | 1.7 | 0.13 | 1.14 | 1.14 | 99 | 1018.8 |
| 20260506030030 | 49 | 137 | 0.0 | 1.7 | 0.13 | 1.14 | 1.14 | 99 | 1018.9 |
| 20260506023033 | 49 | 137 | 0.0 | 0.9 | 0.10 | 1.08 | 1.08 | 99 | 1019.1 |
| 20260506020346 | 49 | 137 | 0.0 | 1.7 | 0.06 | 1.01 | 1.01 | 99 | 1018.9 |
| 20260506020049 | 49 | 137 | 0.0 | 1.7 | 0.06 | 1.01 | 1.01 | 99 | 1018.8 |
| 20260506013106 | 49 | 137 | 0.0 | 0.9 | 0.03 | 0.98 | 0.98 | 99 | 1018.5 |
| 20260506010318 | 49 | 137 | 0.0 | 0.9 | 0.03 | 0.95 | 0.95 | 98 | 1018.5 |
| 20260506010023 | 49 | 137 | 0.0 | 0.9 | 0.04 | 0.95 | 0.95 | 98 | 1018.4 |
| 20260506003033 | 49 | 152 | 1.7 | 2.6 | 0.20 | 0.95 | 0.95 | 98 | 1018.1 |
| 20260506000332 | 49 | 155 | 1.7 | 2.6 | 0.30 | 0.92 | 0.92 | 98 | 1018.5 |
| 20260506000030 | 49 | 254 | 1.7 | 2.6 | 0.30 | 0.91 | 0.91 | 98 | 1019.0 |
| 20260505233029 | 49 | 253 | 0.0 | 1.7 | 0.29 | 0.75 | 0.75 | 97 | 1018.2 |
| 20260505230323 | 49 | 253 | 0.0 | 1.7 | 0.22 | 0.62 | 0.62 | 97 | 1018.8 |
| 20260505230055 | 49 | 253 | 0.9 | 1.7 | 0.21 | 0.60 | 0.60 | 97 | 1018.7 |
| 20260505230013 | 49 | 253 | 0.9 | 1.7 | 0.21 | 0.60 | 0.60 | 97 | 1018.7 |
| 20260505223056 | 50 | 295 | 0.9 | 6.1 | 0.17 | 0.48 | 0.46 | 97 | 1018.6 |
| 20260505220331 | 50 | 284 | 2.6 | 4.3 | 0.14 | 0.41 | 0.39 | 96 | 1018.5 |
| 20260505220116 | 50 | 275 | 0.9 | 2.6 | 0.15 | 0.41 | 0.39 | 96 | 1018.3 |
| 20260505220034 | 50 | 275 | 0.9 | 2.6 | 0.15 | 0.41 | 0.39 | 96 | 1018.3 |
| 20260505213012 | 51 | 249 | 2.6 | 7.8 | 0.13 | 0.31 | 0.29 | 96 | 1018.4 |
| 20260505210413 | 52 | 284 | 5.2 | 9.6 | 0.19 | 0.27 | 0.25 | 95 | 1018.3 |
| 20260505210110 | 52 | 254 | 3.5 | 9.6 | 0.19 | 0.26 | 0.24 | 95 | 1018.4 |
| 20260505203027 | 55 | 328 | 1.7 | 8.7 | 0.16 | 0.18 | 0.16 | 95 | 1017.8 |
| 20260505200342 | 56 | 282 | 3.5 | 5.2 | 0.06 | 0.08 | 0.06 | 92 | 1018.0 |
| 20260505200104 | 56 | 292 | 3.5 | 5.2 | 0.05 | 0.07 | 0.05 | 92 | 1017.9 |
| 20260505193105 | 58 | 273 | 5.2 | 9.6 | 0.00 | 0.02 | 0.00 | 85 | 1017.9 |
| 20260505190313 | 60 | 308 | 6.1 | 12.2 | 0.00 | 0.02 | 0.00 | 81 | 1017.7 |
| 20260505190058 | 60 | 280 | 7.8 | 12.2 | 0.00 | 0.02 | 0.00 | 81 | 1017.7 |
| 20260505183033 | 60 | 324 | 6.1 | 12.2 | 0.00 | 0.02 | 0.00 | 83 | 1017.9 |
| 20260505180325 | 61 | 273 | 6.1 | 12.2 | 0.00 | 0.02 | 0.00 | 82 | 1017.7 |
| 20260505180048 | 61 | 289 | 4.3 | 12.2 | 0.00 | 0.02 | 0.00 | 81 | 1017.7 |
| 20260505173022 | 62 | 303 | 6.1 | 11.3 | 0.00 | 0.02 | 0.00 | 79 | 1017.4 |
| 20260505170317 | 63 | 316 | 8.7 | 14.8 | 0.00 | 0.02 | 0.00 | 76 | 1017.5 |
| 20260505170055 | 63 | 321 | 7.8 | 14.8 | 0.00 | 0.02 | 0.00 | 76 | 1017.4 |
| 20260505163025 | 67 | 276 | 8.7 | 18.2 | 0.00 | 0.02 | 0.00 | 69 | 1016.8 |
| 20260505160347 | 67 | 303 | 7.0 | 13.0 | 0.00 | 0.02 | 0.00 | 68 | 1016.7 |
| 20260505160105 | 67 | 266 | 6.1 | 12.2 | 0.00 | 0.02 | 0.00 | 68 | 1016.7 |
| 20260505153042 | 69 | 302 | 5.2 | 13.0 | 0.00 | 0.02 | 0.00 | 64 | 1015.7 |
| 20260505150314 | 66 | 263 | 7.8 | 13.0 | 0.00 | 0.02 | 0.00 | 67 | 1016.4 |
| 20260505140430 | 66 | 231 | 7.0 | 15.6 | 0.00 | 0.02 | 0.00 | 70 | 1015.3 |
| 20260505140327 | 66 | 231 | 7.0 | 15.6 | 0.00 | 0.02 | 0.00 | 70 | 1015.3 |
| 20260505123053 | 65 | 210 | 7.8 | 15.6 | 0.00 | 0.02 | 0.00 | 65 | 1014.5 |
| 20260505120408 | 66 | 234 | 4.3 | 10.4 | 0.00 | 0.02 | 0.00 | 66 | 1014.3 |
| 20260505120022 | 66 | 252 | 5.2 | 10.4 | 0.00 | 0.02 | 0.00 | 65 | 1014.2 |
| 20260505113105 | 66 | 272 | 7.0 | 14.8 | 0.00 | 0.02 | 0.00 | 64 | 1014.3 |
| 20260505113023 | 66 | 272 | 7.0 | 14.8 | 0.00 | 0.02 | 0.00 | 64 | 1014.3 |
| 20260505110319 | 66 | 244 | 6.1 | 11.3 | 0.00 | 0.02 | 0.00 | 66 | 1013.8 |
| 20260505100414 | 66 | 205 | 4.3 | 8.7 | 0.00 | 0.02 | 0.00 | 65 | 1013.0 |
| 20260505100030 | 66 | 222 | 5.2 | 13.0 | 0.00 | 0.02 | 0.00 | 65 | 1013.0 |
| 20260505093054 | 67 | 254 | 4.3 | 18.2 | 0.00 | 0.02 | 0.00 | 63 | 1012.6 |
| 20260505090353 | 67 | 214 | 7.8 | 13.0 | 0.00 | 0.02 | 0.00 | 64 | 1012.4 |
| 20260505090112 | 67 | 206 | 6.1 | 13.0 | 0.00 | 0.02 | 0.00 | 64 | 1012.5 |
| 20260505083035 | 67 | 236 | 6.1 | 14.8 | 0.00 | 0.02 | 0.00 | 63 | 1012.5 |
| 20260505080355 | 68 | 248 | 8.7 | 18.2 | 0.00 | 0.02 | 0.00 | 61 | 1012.2 |
| 20260505080030 | 68 | 232 | 8.7 | 13.0 | 0.00 | 0.02 | 0.00 | 61 | 1012.3 |
| 20260505073049 | 69 | 196 | 7.8 | 19.1 | 0.00 | 0.02 | 0.00 | 60 | 1012.0 |
| 20260505070424 | 68 | 221 | 9.6 | 24.3 | 0.00 | 0.02 | 0.00 | 63 | 1012.0 |
| 20260505070321 | 68 | 221 | 9.6 | 24.3 | 0.00 | 0.02 | 0.00 | 63 | 1012.0 |
| 20260505070104 | 68 | 229 | 7.0 | 24.3 | 0.00 | 0.02 | 0.00 | 63 | 1012.0 |
| 20260505063046 | 66 | 211 | 7.0 | 16.5 | 0.00 | 0.02 | 0.00 | 67 | 1012.3 |
| 20260505060404 | 66 | 203 | 5.2 | 11.3 | 0.00 | 0.02 | 0.00 | 68 | 1012.8 |
| 20260505060018 | 66 | 221 | 5.2 | 11.3 | 0.00 | 0.02 | 0.00 | 68 | 1012.8 |
| 20260505053013 | 67 | 201 | 7.8 | 16.5 | 0.00 | 0.02 | 0.00 | 66 | 1013.1 |
| 20260505050349 | 67 | 236 | 8.7 | 14.8 | 0.00 | 0.02 | 0.00 | 66 | 1013.5 |